This is the latest recevied weather packets stored in our database for station/object DB0BGL. If no packets are shown the sender has not sent any weather packets the latest 10 day(s).
| Time | Temp. | Humidity | Pressure | Rain* | Wind** | Luminosity | Snow |
|---|---|---|---|---|---|---|---|
| 1788530542 | 22.22° C | 32% | 0 hPa | 0 mm | - | - | - |
| 1788529941 | 21.67° C | 33% | 0 hPa | 0 mm | - | - | - |
| 1788529341 | 22.78° C | 32% | 0 hPa | 0 mm | - | - | - |
| 1788528740 | 22.22° C | 34% | 0 hPa | 0 mm | - | - | - |
| 1788528140 | 21.67° C | 34% | 0 hPa | 0 mm | - | - | - |
| 1788527542 | 21.67° C | 35% | 0 hPa | 0 mm | - | - | - |
| 1788526940 | 21.11° C | 35% | 0 hPa | 0 mm | - | - | - |
| 1788526362 | 21.11° C | 35% | 0 hPa | 0 mm | - | - | - |
| 1788525738 | 20.56° C | 100% | 0 hPa | 0 mm | - | - | - |
| 1788525137 | 20.56° C | 36% | 0 hPa | 0 mm | - | - | - |
| 1788524536 | 20.56° C | 37% | 0 hPa | 0 mm | - | - | - |
| 1788523935 | 20° C | 38% | 0 hPa | 0 mm | - | - | - |
| 1788523335 | 19.44° C | 39% | 0 hPa | 0 mm | - | - | - |
| 1788522734 | 19.44° C | 40% | 0 hPa | 0 mm | - | - | - |
| 1788522142 | 19.44° C | 39% | 0 hPa | 0 mm | - | - | - |
| 1788521575 | 18.89° C | 40% | 0 hPa | 0 mm | - | - | - |
| 1788521533 | 18.89° C | 40% | 0 hPa | 0 mm | - | - | - |
| 1788520932 | 18.89° C | 40% | 0 hPa | 0 mm | - | - | - |
| 1788520332 | 18.33° C | 42% | 0 hPa | 0 mm | - | - | - |
| 1788519731 | 17.22° C | 43% | 0 hPa | 0 mm | - | - | - |
| 1788519131 | 17.78° C | 44% | 0 hPa | 0 mm | - | - | - |
| 1788518563 | 17.22° C | 46% | 0 hPa | 0 mm | - | - | - |
| 1788518530 | 17.22° C | 46% | 0 hPa | 0 mm | - | - | - |
| 1788517930 | 17.22° C | 45% | 0 hPa | 0 mm | - | - | - |
| 1788517329 | 16.67° C | 46% | 0 hPa | 0 mm | - | - | - |
* Rain latest hour (hover to see other rain measurements)
** Current wind speed in m/s (hover to see current wind gust speed)